Location: La Coruña
(43.3623°N, 8.4115°W)
Time: 20:06:54
(UTC+01:00)

STARLINK-1086 - Pass Details

Date: 19 January 2020
Orbit: 349 x 351 km, 53.0° (Epoch: 18 February)

Event Time Altitude Azimuth Distance (km) Brightness Sun altitude
Rises 20:39:03 0° 280° (W) 2,164 7.9 -23.6°
Reaches altitude 10° 20:41:33 10° 302° (WNW) 1,323 6.2 -24.0°
Enters shadow 20:42:26 14° 318° (NW) 1,118 5.6 -24.2°
